MDT,Max TemperatureF,Mean TemperatureF,Min TemperatureF,Max Dew PointF,MeanDew PointF,Min DewpointF,Max Humidity, Mean Humidity, Min Humidity, Max Sea Level PressureIn, Mean Sea Level PressureIn, Min Sea Level PressureIn, Max VisibilityMiles, Mean VisibilityMiles, Min VisibilityMiles, Max Wind SpeedMPH, Mean Wind SpeedMPH, Max Gust SpeedMPH,PrecipitationIn, CloudCover, Events, WindDirDegrees
2013-4-1,57,40,22,27,24,19,92,59,26,30.30,30.22,30.13,10,9,6,12,5,16,0.00,2,,172
2013-4-2,61,41,20,29,21,9,92,53,13,30.24,30.17,30.12,10,9,6,15,6,16,0.00,0,,204
2013-4-3,73,50,26,36,29,20,85,50,14,30.12,30.04,29.93,10,9,0,26,9,35,T,1,,235
2013-4-4,70,49,28,34,31,26,92,59,25,30.19,30.06,29.91,10,10,6,25,7,31,T,1,,97
2013-4-5,81,58,35,39,30,24,66,41,15,29.88,29.70,29.56,10,10,10,29,11,40,0.00,3,,262
2013-4-6,66,51,36,38,32,27,79,52,25,29.83,29.79,29.73,10,10,10,25,10,32,T,1,Rain,292
2013-4-7,67,51,35,34,31,27,76,51,26,29.78,29.66,29.55,10,10,10,26,5,32,0.00,2,,271
2013-4-8,50,34,17,41,30,16,100,88,76,30.14,29.84,29.60,10,3,0,32,16,71,T,6,Fog-Rain-Snow,20
2013-4-9,16,14,12,14,11,9,92,88,84,30.48,30.29,30.02,3,0,0,32,20,54,T,8,Fog-Snow,7
2013-4-10,25,15,4,19,16,8,100,87,74,30.43,30.18,29.94,6,1,0,18,8,22,0.12,8,Fog-Snow,337
2013-4-11,31,16,0,25,10,-2,100,85,69,30.11,29.95,29.81,10,6,0,12,5,13,0.00,5,Fog,258
2013-4-12,41,32,23,32,27,20,92,79,65,30.07,30.01,29.85,10,9,7,23,8,28,0.00,3,,277
2013-4-13,49,35,20,37,30,18,88,72,56,30.04,29.64,29.41,10,10,7,24,11,31,0.01,4,Rain,200
2013-4-14,43,34,24,35,27,17,85,67,49,29.92,29.60,29.43,10,10,7,39,24,47,T,5,,288
2013-4-15,37,30,22,23,18,14,77,61,44,30.19,30.03,29.88,10,10,10,23,10,32,0.00,4,,357
2013-4-16,30,28,26,27,25,20,92,78,63,30.31,30.17,30.10,10,2,0,18,11,21,0.02,8,Fog-Rain-Snow,67
2013-4-17,28,26,24,27,24,21,100,91,81,30.32,30.18,30.11,9,2,0,18,13,22,0.13,8,Fog-Snow,26
2013-4-18,33,26,19,22,19,15,92,77,61,30.27,30.18,30.11,10,5,0,23,13,29,0.02,6,Fog-Snow,310
2013-4-19,43,35,27,34,29,21,82,72,61,30.12,30.05,29.96,10,10,9,23,10,29,0.00,6,,59
2013-4-20,60,48,36,40,35,31,85,61,37,29.99,29.93,29.88,10,10,4,22,8,28,0.01,5,Rain,232
2013-4-21,57,45,33,42,38,32,100,74,47,30.14,30.05,29.96,10,8,2,26,11,30,0.36,6,Rain-Thunderstorm,22
2013-4-22,40,28,16,37,25,15,100,84,68,30.53,30.24,29.96,10,3,0,36,15,44,0.11,7,Fog-Rain-Snow,36
2013-4-23,39,27,15,24,18,13,92,68,44,30.50,30.35,30.24,10,8,6,14,7,20,0.00,4,,263
2013-4-24,48,37,25,29,25,19,85,64,42,30.25,30.22,30.17,10,10,9,29,13,40,0.00,2,,280
2013-4-25,70,49,28,29,25,17,85,50,14,30.21,29.97,29.81,10,10,10,23,9,28,0.00,0,,243
2013-4-26,72,51,29,37,28,22,85,50,15,30.17,30.11,30.00,10,10,8,13,6,18,0.00,1,,232
2013-4-27,78,57,36,36,29,24,70,42,14,30.09,29.97,29.81,10,10,8,21,8,26,0.00,0,,249
2013-4-28,73,58,42,40,35,32,71,48,25,29.92,29.85,29.78,10,10,10,24,10,29,0.00,1,,21
2013-4-29,79,57,34,40,33,24,92,53,13,29.92,29.62,29.42,10,10,10,28,10,35,0.00,1,,258
2013-4-30,54,45,35,38,33,24,92,62,32,30.17,29.91,29.65,10,8,2,25,9,31,0.28,6,Rain-Snow,24